#timestamp,LO_Frequency,Hit 
1501228815.8,286046965.2,N
1501228835.6,286046963.8,Y
1501228855.5,286046975.4,N
1501228875.3,286046975.2,N
1501228895.1,286046971.1,N
1501228915.8,286046970.1,N
1501228935.7,286046973.4,N
1501228955.5,286046971.8,N
1501228975.3,286046970.3,N
1501228995.2,286046969.3,N
1501229015.9,286046970.8,N
1501229035.7,286046968.1,N
1501229055.6,286046968.0,N
1501229075.4,286046967.6,N
1501229095.2,286046967.4,N
1501229115.1,286046967.0,N
1501229116.0,286046967.0,N
1501229135.8,286046964.0,N
1501229155.6,286046964.4,N
1501229175.5,286046960.6,Y
1501229195.3,286046973.3,N
1501229215.1,286046975.1,N
1501229235.9,286046974.6,N
1501229255.7,286046974.3,N
1501229275.5,286046976.4,N
1501229295.3,286046979.7,N
1501229315.2,286046982.0,N
1501229335.0,286046982.8,N
1501229335.9,286046982.8,N
1501229355.7,286046985.1,N
1501229375.6,286046985.0,N
1501229395.4,286046982.2,N
1501229415.2,286046985.2,N
1501229435.1,286046980.8,N
1501229436.0,286046980.8,N
1501229455.8,286046981.0,N
1501229475.6,286046982.6,N
1501229495.5,286046982.0,N
1501229515.3,286046979.3,N
1501229535.1,286046982.9,N
1501229555.8,286046984.8,N
1501229575.7,286046982.6,N
1501229595.5,286046980.6,N
1501229615.3,286046982.5,N
1501229635.2,286046984.7,N
1501229655.9,286046986.8,N
1501229675.7,286046985.8,N
1501229695.6,286046985.1,N
1501229715.4,286046982.2,N
1501229735.2,286046982.2,N
1501229755.1,286046982.9,N
1501229756.0,286046982.9,N
1501229775.8,286046980.7,N
1501229795.6,286046982.8,N
1501229815.4,286046986.8,N
1501229835.3,286046985.8,N
1501229855.1,286046987.6,N
1501229875.8,286046988.0,N
1501229895.7,286046985.4,N
1501229915.5,286046988.3,N
1501229935.3,286046987.5,N
1501229955.2,286046987.3,N
1501229975.9,286046985.4,N
1501229995.7,286046986.1,N
1501230015.6,286046983.7,N
1501230035.4,286046986.1,N
1501230055.2,286046985.1,N
1501230075.0,286046983.7,N
1501230075.9,286046983.7,N
1501230095.8,286046984.5,N
1501230115.6,286046982.1,N
1501230135.4,286046984.9,N
1501230155.3,286046982.7,N
1501230175.1,286046982.1,N
1501230176.0,286046982.1,N
1501230195.8,286046983.6,N
1501230215.7,286046978.1,N
1501230235.5,286046975.4,N
1501230255.3,286046974.9,N
1501230275.2,286046977.2,N
1501230295.9,286046975.1,N
1501230315.7,286046972.6,N
1501230335.5,286046974.1,N
1501230355.4,286046975.1,N
1501230375.2,286046974.4,N
1501230395.0,286046976.6,N
1501230395.9,286046976.6,N
1501230415.8,286046978.3,N
1501230435.6,286046978.8,N
1501230455.4,286046978.5,N
1501230475.3,286046977.7,N
1501230495.1,286046980.0,N
1501230496.0,286046980.0,N
1501230515.8,286046979.8,N
1501230535.7,286046979.7,N
1501230555.5,286046979.5,N
1501230575.3,286046977.4,N
1501230595.1,286046978.5,N
1501230615.9,286046975.9,N
1501230635.7,286046976.8,N
1501230655.5,286046974.1,N
1501230675.4,286046974.1,N
1501230695.2,286046973.2,N
1501230715.0,286046972.7,N
1501230715.9,286046972.7,N
1501230735.8,286046972.1,N
1501230755.6,286046969.0,N
1501230775.4,286046968.0,Y
1501230795.3,286046986.6,N
1501230815.1,286046988.3,N
1501230816.0,286046988.3,N
1501230835.8,286046985.5,N
1501230855.7,286046988.3,N
1501230875.5,286046986.4,N
1501230895.3,286046985.4,N
1501230915.1,286046983.7,N
1501230935.9,286046982.5,N
1501230955.7,286046984.6,N
1501230975.5,286046982.6,N
1501230995.4,286046985.0,N
1501231015.2,286046986.4,N
1501231035.0,286046982.1,N
1501231035.9,286046982.1,N
1501231055.8,286046982.2,N
1501231075.6,286046981.7,N
1501231095.4,286046982.2,N
1501231115.3,286046982.9,N
1501231135.1,286046978.7,N
1501231136.0,286046978.7,N
1501231155.8,286046978.0,N
1501231175.6,286046980.2,N
1501231195.5,286046976.3,N
1501231215.3,286046975.3,N
1501231235.1,286046977.1,N
1501231255.9,286046978.5,N
1501231275.7,286046978.3,N
1501231295.5,286046973.8,N
1501231315.4,286046973.9,N
1501231335.2,286046975.3,N
1501231355.0,286046974.8,N
1501231355.9,286046974.8,N
1501231375.8,286046976.6,N
1501231395.6,286046975.2,N
1501231415.4,286046975.2,N
1501231435.3,286046972.9,N
1501231455.1,286046975.3,N
1501231456.0,286046975.3,N
1501231475.8,286046974.2,N
1501231495.6,286046973.4,N
1501231515.5,286046973.9,N
1501231535.3,286046971.1,Y
1501231555.1,286046993.2,N
1501231575.9,286046991.1,N
1501231595.7,286046990.9,N
1501231615.5,286046988.8,N
1501231635.4,286046989.3,N
1501231655.2,286046991.4,N
1501231675.0,286046990.1,N
1501231675.9,286046990.1,N
1501231695.8,286046991.3,N
1501231715.6,286046986.0,N
1501231735.4,286046989.6,N
1501231755.2,286046991.5,N
1501231775.1,286046989.2,N
1501231776.0,286046989.2,N
1501231795.8,286046986.1,N
1501231815.6,286046985.9,N
1501231835.5,286046987.6,N
1501231855.3,286046986.1,N
1501231875.1,286046987.5,N
1501231895.9,286046988.7,N
1501231915.7,286046985.5,N
1501231935.5,286046988.2,N
1501231955.4,286046987.3,N
1501231975.2,286046987.5,N
1501231995.0,286046989.1,N
1501231995.9,286046989.1,N
1501232015.8,286046989.5,N
1501232035.6,286046990.0,N
1501232055.4,286046989.7,N
1501232075.2,286046989.6,N
1501232095.1,286046988.9,N
1501232096.0,286046988.9,N
1501232115.8,286046990.4,N
1501232135.6,286046992.7,N
1501232155.5,286046993.9,N
1501232175.3,286046994.2,N
1501232195.1,286046994.8,N
1501232215.9,286046992.2,N
1501232235.7,286046990.1,N
1501232255.5,286046989.0,N
1501232275.4,286046988.0,N
1501232295.2,286046985.6,N
1501232315.0,286046986.5,N
1501232315.9,286046986.5,N
1501232335.7,286046984.4,N
1501232355.6,286046980.9,N
1501232375.4,286046984.5,N
1501232395.2,286046984.1,N
